[[{"header":{"parameterUnit":"m.s-1","parameterCategory":1,"la1":30.2991,"la2":30.254,"lo1":-89.0895,"lo2":-89.0444,"dy":0.0017,"dx":0.0017,"nx":28,"ny":28,"refTime":"2023-10-11T03:00:00:Z","depth":0,"parameterNumber":2,"parameterNumberName":"U-component_of_WINDS"},"data":[0,0,0,0,0,0,0,0,0,0,0,0,0,0,0,0,0,0,0,0,0,0,0,0,0,0,0,0,0,0,0,0,0,0,0,0,0,0,0,0,0,0,0,0,0,0,0,0,0,0,0,0,0,0,0,0,0,0,-4.7659,-4.7659,0,-4.7651,-4.7651,-4.7651,-4.7483,-4.7479,-4.7474,-4.747,-4.7463,-4.7466,-4.747,0,0,0,0,0,0,0,0,0,0,0,0,0,-4.7532,-4.7535,-4.7659,-4.7659,-4.7659,-4.7651,-4.7651,-4.7651,-4.7484,-4.7478,-4.7473,-4.7468,-4.7461,-4.7466,-4.747,0,0,0,0,0,0,0,0,0,0,0,0,0,-4.7562,-4.7536,-4.7659,-4.7575,-4.7567,-4.7651,-4.7651,-4.7651,-4.7485,-4.7478,-4.7472,-4.7466,-4.746,-4.7465,-4.7471,-4.7635,0,0,-4.7489,-4.7491,0,0,0,0,0,0,0,0,-4.756,-4.7567,-4.7587,-4.7581,-4.7572,-4.7561,-4.7603,-4.7646,-4.7486,-4.7516,-4.747,-4.7463,-4.7501,-4.7503,-4.7515,-4.7635,-4.7635,-4.7489,-4.7493,-4.7495,-4.7497,0,0,0,0,0,0,0,-4.7559,-4.7566,-4.7656,-4.7588,-4.7579,-4.7538,-4.7535,-4.761,-4.7545,-4.7513,-4.7501,-4.7502,-4.7495,-4.751,-4.7514,-4.7635,-4.7489,-4.7494,-4.7497,-4.75,-4.7888,-4.7894,0,0,0,0,0,0,-4.7568,-4.7566,-4.7656,-4.7656,-4.755,-4.7545,-4.7542,-4.7571,-4.7543,-4.7533,-4.7508,-4.7494,-4.7504,-4.7507,-4.7513,-4.7702,-4.7495,-4.75,-4.7504,-4.7881,-4.7889,-4.7897,0,0,0,0,0,0,-4.7566,-4.7578,-4.7656,-4.7607,-4.7614,-4.7554,-4.7589,-4.7575,-4.7589,-4.7539,-4.7527,-4.7535,-4.7499,-4.7505,-4.7606,-4.77,-4.7503,-4.7508,-4.7873,-4.7884,-4.7893,-4.8083,0,0,0,0,0,0,-4.7563,-4.7578,-4.764,-4.761,-4.7617,-4.775,-4.7594,-4.7579,-4.7599,-4.7582,-4.7561,-4.7552,-4.7494,-4.7598,-4.7612,-4.7704,-4.7512,-4.7864,-4.7878,-4.789,-4.8068,-4.8099,-4.8125,0,0,0,0,0,-4.7559,-4.7694,-4.7644,-4.7655,-4.7693,-4.7756,-4.776,-4.769,-4.7608,-4.7669,-4.7637,-4.7552,-4.7688,-4.761,-4.7624,-4.7719,-4.7858,-4.7874,-4.7889,-4.8056,-4.8093,-4.8124,0,0,0,0,0,0,-4.7736,-4.7688,-4.7632,-4.7761,-4.7764,-4.7727,-4.7802,-4.7732,-4.7758,-4.7741,-4.7654,-4.7651,-4.7765,-4.7752,-4.7667,-4.7876,-4.7758,-4.7777,-4.788,-4.7915,-4.7943,-4.7943,-4.7517,0,0,0,0,0,-4.7791,-4.7845,-4.78,-4.7919,-4.7923,-4.7863,-4.7888,-4.7834,-4.7833,-4.7833,-4.7809,-4.7812,-4.7854,-4.7884,-4.7921,-4.8066,-4.8059,-4.8139,-4.8167,-4.8191,-4.8208,-4.8282,-4.8317,-4.7948,-4.7947,-4.7947,0,0,-4.7903,-4.7884,-4.7923,-4.7954,-4.7949,-4.8008,-4.7865,-4.7933,-4.7975,-4.7844,-4.7937,-4.792,-4.7917,-4.804,-4.8094,-4.8033,-4.8308,-4.821,-4.823,-4.8233,-4.8302,-4.8337,-4.8368,-4.7958,-4.7956,-4.7955,0,0,-4.8137,-4.8129,-4.8225,-4.8224,-4.8219,-4.8178,-4.8202,-4.8176,-4.8159,-4.8252,-4.8154,-4.8204,-4.828,-4.8281,-4.8292,-4.8528,-4.8451,-4.8543,-4.869,-4.8764,-4.8793,-4.8818,-4.8901,-4.8932,-4.856,-4.8561,-4.8561,0,-4.8277,-4.8361,-4.8285,-4.8359,-4.8375,-4.8258,-4.8356,-4.8358,-4.8366,-4.838,-4.8312,-4.8405,-4.8395,-4.8517,-4.8575,-4.8588,-4.8612,-4.8544,-4.8795,-4.882,-4.8842,-4.892,-4.8952,-4.8572,-4.857,-4.8569,-4.8568,0,-4.8533,-4.8593,-4.8672,-4.8681,-4.8707,-4.8793,-4.8729,-4.8764,-4.8709,-4.8676,-4.8771,-4.8755,-4.8786,-4.8812,-4.8759,-4.8927,-4.8889,-4.881,-4.8689,-4.889,-4.8961,-4.8991,-4.8587,-4.8583,-4.858,-4.8577,0,0,-4.8877,-4.8844,-4.8874,-4.8876,-4.8863,-4.8907,-4.8988,-4.9018,-4.9049,-4.9059,-4.9124,-4.9192,-4.9118,-4.9131,-4.9077,-4.9142,-4.9329,-4.9054,-4.9053,-4.9105,-4.9512,-4.957,-4.9606,-4.9279,-4.9284,-4.9288,-4.9511,0,-4.9102,-4.9236,-4.917,-4.9313,-4.9367,-4.9258,-4.9328,-4.9327,-4.9299,-4.9341,-4.9309,-4.9358,-4.9258,-4.9264,-4.9325,-4.9294,-4.9409,-4.9277,-4.9337,-4.9341,-4.934,-4.9643,-4.9705,-4.9916,-4.9539,-4.9544,-4.9547,0,-4.9381,-4.9402,-4.955,-4.9526,-4.9546,-4.961,-4.9632,-4.9674,-4.9671,-4.9646,-4.9661,-4.9592,-4.9669,-4.9551,-4.9656,-4.9568,-4.9589,-4.9578,-4.9585,-4.9586,-4.9455,-4.9652,-4.9982,-5.0013,-4.9591,-4.9587,-4.9584,0,-4.9615,-4.9681,-4.9777,-4.9783,-4.9758,-4.9806,-4.9798,-4.9788,-4.9811,-4.983,-4.9844,-4.9873,-4.9889,-4.9913,-4.9854,-4.9774,-4.9968,-4.9845,-4.9948,-4.995,-4.9992,-4.999,-5.0329,-5.001,-5.0009,-5.0009,-5.0008,0,-4.9872,-4.9967,-4.9882,-4.9942,-5.0044,-4.9968,-5.0072,-5.0052,-5.0045,-5.0099,-5.0007,-5.006,-4.9979,-5.0024,-4.9979,-5.0072,-5.0081,-5.0062,-5.0049,-5.0069,-5.0072,-5.008,-5.0064,-5.0017,-5.0015,-5.0014,-5.0012,0,-5.015,-5.0097,-5.0195,-5.0163,-5.0158,-5.0235,-5.0207,-5.0261,-5.0227,-5.0296,-5.0308,-5.0254,-5.0302,-5.0246,-5.029,-5.0259,-5.0386,-5.0351,-5.0386,-5.0376,-5.0482,-5.0472,-5.0837,-5.0881,-5.0536,-5.0539,-5.0542,0,-5.0316,-5.0386,-5.0362,-5.0391,-5.0388,-5.0437,-5.0458,-5.0387,-5.0414,-5.0416,-5.047,-5.051,-5.0538,-5.062,-5.0585,-5.0618,-5.0582,-5.0708,-5.0586,-5.0605,-5.0582,-5.0578,-5.0584,-5.0732,-5.0736,-5.074,-5.0743,0,-5.0616,-5.0587,-5.0621,-5.0648,-5.0677,-5.0695,-5.0705,-5.0735,-5.066,-5.0695,-5.0742,-5.0764,-5.0808,-5.0849,-5.0872,-5.0864,-5.0792,-5.0782,-5.0807,-5.0827,-5.0844,-5.0835,-5.0452,-5.0773,-5.077,-5.0768,-5.0766,-5.0765,-5.0842,-5.0898,-5.089,-5.0932,-5.0933,-5.0945,-5.0993,-5.0965,-5.1003,-5.1033,-5.0989,-5.1048,-5.1044,-5.1067,-5.1068,-5.1113,-5.1059,-5.1096,-5.1105,-5.1115,-5.113,-5.0839,-5.1117,-5.1116,-5.1116,-5.1115,-5.1114,0,-5.1135,-5.1125,-5.1164,-5.1182,-5.1215,-5.1144,-5.1152,-5.1185,-5.1238,-5.124,-5.1269,-5.1324,-5.1363,-5.1332,-5.1365,-5.1407,-5.1375,-5.1418,-5.1413,-5.1412,-5.1178,-5.1152,-5.1444,-5.1444,-5.1444,-5.1444,-5.1444,-5.1444,-5.1292,-5.1384,-5.1354,-5.1445,-5.1433,-5.149,-5.1501,-5.1512,-5.1513,-5.1578,-5.161,-5.1589,-5.1578,-5.1609,-5.1642,-5.1632,-5.1647,-5.1703,-5.1681,-5.1462,-5.1429,-5.1398,-5.1373,-5.1707,-5.1708,-5.1911,-5.1913,-5.1914]},{"header":{"parameterUnit":"m.s-1","parameterCategory":1,"la1":30.2991,"la2":30.254,"lo1":-89.0895,"lo2":-89.0444,"dy":0.0017,"dx":0.0017,"nx":28,"ny":28,"refTime":"2023-10-11T03:00:00:Z","depth":0,"parameterNumber":3,"parameterNumberName":"V-component_of_WINDS"},"data":[0,0,0,0,0,0,0,0,0,0,0,0,0,0,0,0,0,0,0,0,0,0,0,0,0,0,0,0,0,0,0,0,0,0,0,0,0,0,0,0,0,0,0,0,0,0,0,0,0,0,0,0,0,0,0,0,0,0,-0.0687,-0.0687,0,-0.072,-0.072,-0.0721,-0.0776,-0.0777,-0.0778,-0.0778,-0.0811,-0.0811,-0.0811,0,0,0,0,0,0,0,0,0,0,0,0,0,-0.0668,-0.0668,-0.0687,-0.0687,-0.0688,-0.072,-0.072,-0.0721,-0.0775,-0.0777,-0.0778,-0.0779,-0.0811,-0.0811,-0.0811,0,0,0,0,0,0,0,0,0,0,0,0,0,-0.0686,-0.0668,-0.0687,-0.0719,-0.0722,-0.072,-0.072,-0.0721,-0.0775,-0.0777,-0.0778,-0.078,-0.0811,-0.0811,-0.0811,-0.078,0,0,-0.081,-0.081,0,0,0,0,0,0,0,0,-0.0685,-0.0687,-0.0714,-0.0717,-0.072,-0.0745,-0.0726,-0.0741,-0.0775,-0.0755,-0.0779,-0.078,-0.0788,-0.079,-0.0793,-0.0781,-0.0783,-0.081,-0.081,-0.081,-0.081,0,0,0,0,0,0,0,-0.0684,-0.0686,-0.07,-0.0714,-0.0718,-0.0731,-0.0735,-0.0729,-0.0762,-0.0757,-0.0761,-0.0764,-0.079,-0.0792,-0.0794,-0.0783,-0.081,-0.081,-0.081,-0.081,-0.0746,-0.0745,0,0,0,0,0,0,-0.0678,-0.0684,-0.0699,-0.0701,-0.0706,-0.073,-0.0734,-0.0736,-0.0763,-0.0768,-0.0763,-0.0766,-0.0792,-0.0794,-0.0795,-0.076,-0.081,-0.081,-0.081,-0.0748,-0.0746,-0.0744,0,0,0,0,0,0,-0.0677,-0.0679,-0.0698,-0.0694,-0.0697,-0.0728,-0.0729,-0.0735,-0.0738,-0.0767,-0.0773,-0.0759,-0.0793,-0.0795,-0.0783,-0.0761,-0.081,-0.081,-0.075,-0.0747,-0.0745,-0.0689,0,0,0,0,0,0,-0.0677,-0.0678,-0.0668,-0.0693,-0.0697,-0.0685,-0.0728,-0.0735,-0.0738,-0.0743,-0.0766,-0.0771,-0.0795,-0.0783,-0.0783,-0.0762,-0.081,-0.0752,-0.0749,-0.0746,-0.0693,-0.0685,-0.0678,0,0,0,0,0,-0.0676,-0.065,-0.0667,-0.0668,-0.0684,-0.0684,-0.0686,-0.0715,-0.0736,-0.0725,-0.0743,-0.077,-0.0764,-0.0781,-0.0781,-0.0761,-0.0753,-0.075,-0.0746,-0.0696,-0.0686,-0.0678,0,0,0,0,0,0,-0.0622,-0.0654,-0.0673,-0.0655,-0.0666,-0.0693,-0.0681,-0.0704,-0.0709,-0.0713,-0.0748,-0.0752,-0.0735,-0.0747,-0.0765,-0.0731,-0.0763,-0.0759,-0.0724,-0.0715,-0.0708,-0.0706,-0.081,0,0,0,0,0,-0.0607,-0.0605,-0.0634,-0.0615,-0.062,-0.0649,-0.065,-0.0671,-0.0684,-0.0689,-0.0706,-0.0717,-0.0717,-0.0717,-0.0719,-0.0694,-0.0699,-0.068,-0.0672,-0.0666,-0.0663,-0.0649,-0.064,-0.0732,-0.0732,-0.0732,0,0,-0.0579,-0.0596,-0.0593,-0.0605,-0.0616,-0.0612,-0.0653,-0.0647,-0.0644,-0.0688,-0.0677,-0.069,-0.0704,-0.0685,-0.0678,-0.0694,-0.0638,-0.0661,-0.0656,-0.0656,-0.0644,-0.0635,-0.0628,-0.073,-0.073,-0.073,0,0,-0.0524,-0.0537,-0.0523,-0.0533,-0.0549,-0.0568,-0.0564,-0.0588,-0.0598,-0.0588,-0.062,-0.0616,-0.0617,-0.0625,-0.0629,-0.0575,-0.06,-0.0575,-0.0536,-0.0523,-0.0515,-0.0509,-0.0489,-0.0482,-0.0571,-0.0571,-0.0571,0,-0.0486,-0.0482,-0.0512,-0.0504,-0.0508,-0.0547,-0.0532,-0.054,-0.0556,-0.0557,-0.0575,-0.0575,-0.0588,-0.0571,-0.0557,-0.056,-0.0556,-0.0573,-0.0514,-0.0508,-0.0503,-0.0484,-0.0476,-0.0568,-0.0568,-0.0569,-0.0569,0,-0.0433,-0.043,-0.0416,-0.043,-0.0432,-0.0421,-0.0449,-0.0447,-0.0467,-0.0483,-0.0472,-0.0488,-0.0493,-0.049,-0.051,-0.0475,-0.0485,-0.0508,-0.054,-0.049,-0.0473,-0.0466,-0.0563,-0.0565,-0.0565,-0.0566,0,0,-0.0347,-0.0377,-0.0371,-0.0378,-0.0397,-0.0395,-0.0384,-0.039,-0.0387,-0.0396,-0.0387,-0.0385,-0.0407,-0.0411,-0.0432,-0.042,-0.0375,-0.0444,-0.0445,-0.043,-0.0336,-0.0318,-0.031,-0.0391,-0.0389,-0.0388,-0.0335,0,-0.0296,-0.028,-0.0306,-0.0284,-0.0281,-0.0316,-0.0307,-0.0317,-0.0332,-0.033,-0.0347,-0.0345,-0.0373,-0.0376,-0.0366,-0.0382,-0.0356,-0.0387,-0.0382,-0.0381,-0.0377,-0.0301,-0.0283,-0.0231,-0.0328,-0.0327,-0.0326,0,-0.0235,-0.024,-0.0218,-0.0238,-0.0237,-0.0228,-0.0234,-0.0233,-0.0244,-0.0256,-0.026,-0.0284,-0.0274,-0.0305,-0.029,-0.031,-0.031,-0.0317,-0.0316,-0.0317,-0.0351,-0.0299,-0.0216,-0.0208,-0.0316,-0.0317,-0.0318,0,-0.0173,-0.0175,-0.0161,-0.0166,-0.0189,-0.0181,-0.019,-0.0204,-0.0205,-0.021,-0.021,-0.0214,-0.0216,-0.0217,-0.0241,-0.0261,-0.0223,-0.0256,-0.0231,-0.0231,-0.0222,-0.0222,-0.0137,-0.0222,-0.0222,-0.0222,-0.0222,0,-0.0113,-0.0098,-0.0134,-0.0125,-0.0108,-0.0138,-0.012,-0.0133,-0.0144,-0.0138,-0.0169,-0.0162,-0.0194,-0.019,-0.0209,-0.0193,-0.0194,-0.0202,-0.0207,-0.0199,-0.0198,-0.0199,-0.0203,-0.022,-0.022,-0.0221,-0.0221,0,-0.0042,-0.0065,-0.0053,-0.0075,-0.008,-0.0067,-0.0085,-0.0078,-0.0094,-0.0086,-0.0085,-0.011,-0.0108,-0.0131,-0.0133,-0.0145,-0.012,-0.0132,-0.0117,-0.012,-0.0094,-0.0095,-0.0006,0.0005,-0.0087,-0.0086,-0.0085,0,-0.0002,0.0009,-0.0012,-0.001,-0.0018,-0.0014,-0.0015,-0.0043,-0.0043,-0.0054,-0.0045,-0.0045,-0.0046,-0.0039,-0.0057,-0.0058,-0.0069,-0.0038,-0.007,-0.0062,-0.0068,-0.0068,-0.0067,-0.0031,-0.003,-0.0029,-0.0028,0,0.0071,0.0059,0.0058,0.0055,0.0055,0.005,0.0044,0.0048,0.0017,0.002,0.0022,0.0022,0.002,0.0022,0.0018,0.0009,-0.0014,-0.0018,-0.0012,-0.0004,0.0005,0.0001,-0.0098,-0.002,-0.0021,-0.0022,-0.0022,-0.0022,0.0128,0.0136,0.0124,0.0125,0.0117,0.0113,0.0119,0.0104,0.0105,0.0102,0.0086,0.0092,0.0081,0.0073,0.0068,0.0073,0.0057,0.0066,0.0068,0.007,0.0075,0.0004,0.0072,0.0071,0.0071,0.0071,0.0071,0,0.0199,0.019,0.0191,0.0184,0.0185,0.0163,0.0155,0.0158,0.0164,0.0156,0.0156,0.016,0.0161,0.0144,0.0144,0.0151,0.0141,0.0152,0.0151,0.015,0.0088,0.0084,0.0161,0.0161,0.0161,0.0161,0.0161,0.0161,0.0237,0.0251,0.0238,0.0249,0.0239,0.0244,0.0242,0.0238,0.0232,0.0238,0.0239,0.0228,0.0217,0.0215,0.0216,0.0211,0.0213,0.0228,0.022,0.0163,0.0154,0.0146,0.0141,0.0229,0.0229,0.0281,0.0281,0.0282]}]]